Location: Asheville, NC
(35.6000°N, 82.5500°W)
Time: 16:55:55
(UTC-05:00)

Vanguard 1 Rocket - Pass Details

Date: 11 February 2018
Orbit: 655 x 4222 km, 34.3° (Epoch: 17 February)

Event Time Altitude Azimuth Distance (km) Brightness Sun altitude
Rises 04:02:06 0° 266° (W) 8,406 - -40.8°
Reaches altitude 10° 04:07:56 10° 267° (W) 7,426 - -39.7°
Exits shadow 04:25:30 52° 266° (W) 4,398 10.3 -36.2°
Maximum altitude 04:33:59 86° 182° (S) 3,396 10.0 -34.5°
Drops below altitude 10° 04:49:22 10° 96° (E) 4,790 11.9 -31.4°
Sets 04:52:13 0° 96° (E) 5,439 12.5 -30.8°
